Jaipur, India

2:26 AM IST on June 28, 2017 (GMT +0530)
Jaipur

Weather History for VIJP - January, 2013

Change the Weather History Date:

Thursday, January 24, 2013

  Actual Average Record
Temperature  
Mean Temperature 57 °F -  
Max Temperature 71 °F - - ()
Min Temperature 43 °F - - ()
Degree Days  
Heating Degree Days 8    
Growing Degree Days 7 (Base 50)    
Moisture  
Dew Point 36 °F    
Average Humidity 48    
Maximum Humidity 76    
Minimum Humidity 16    
Precipitation  
Precipitation 0.00 in - - ()
Sea Level Pressure  
Sea Level Pressure 30.14 in    
Wind  
Wind Speed 2 mph ()    
Max Wind Speed 8 mph    
Max Gust Speed -    
Visibility 1.6 miles    
Events      
T = Trace of Precipitation, MM = Missing Value Source: Averaged Metar Reports

Daily Weather History Graph

Daily Weather History Graph

Search for Another Location

Airport or City:

Trip Planner

Search our weather history database for the weather conditions in past years. The results will help you decide how hot, cold, wet, or windy it might be!

Date:

Astronomy

Jan. 24, 2013 Rise Set
Actual Time 7:15 AM IST 6:02 PM IST
Civil Twilight 6:50 AM IST 6:27 PM IST
Nautical Twilight 6:22 AM IST 6:55 PM IST
Astronomical Twilight 5:54 AM IST 7:23 PM IST
Moon 3:44 PM IST (1/24) 4:48 AM IST (1/24)
Length of Visible Light 11h 36m
Length of Day
10h 47m
Waxing Gibbous, 92% of the Moon is Illuminated
Jan 24
Waxing Gibbous
Jan 27
Full
Feb 3
Last Quarter
Feb 10
New
Feb 18
First Quarter

Hourly Weather History & Observations

Time (IST) Temp. Dew Point Humidity Pressure Visibility Wind Dir Wind Speed Gust Speed Precip Events Conditions
12:00 AM 51.8 °F 39.2 °F 62% 30.15 in 1.2 mi Variable 1.2 mph - N/A   Smoke
1:00 AM 53.6 °F 37.4 °F 54% 30.15 in 1.2 mi NNE 3.5 mph - N/A   Smoke
2:00 AM 48.2 °F 37.4 °F 66% 30.15 in 1.2 mi Calm Calm - N/A   Smoke
2:30 AM 49 °F 39 °F 58% 30.15 in 1 mi Calm Calm - -   Smoke
3:00 AM 46.4 °F 37.4 °F 71% 30.12 in 1.2 mi Calm Calm - N/A   Smoke
4:00 AM 46.4 °F 37.4 °F 71% 30.12 in 1.2 mi Calm Calm - N/A   Smoke
5:00 AM 46.4 °F 37.4 °F 71% 30.12 in 1.2 mi Calm Calm - N/A   Smoke
5:30 AM 46 °F 39 °F 69% 30.15 in 1 mi Calm Calm - -   Smoke
5:30 AM 46.4 °F 39.2 °F 76% 30.12 in 1.2 mi Calm Calm - N/A   Smoke
6:00 AM 46.4 °F 39.2 °F 76% 30.15 in 1.2 mi Variable 2.3 mph - N/A   Smoke
8:00 AM 46.4 °F 39.2 °F 76% 30.18 in 0.7 mi Calm Calm - N/A   Mist
8:30 AM 48 °F 41 °F 69% 30.19 in 1 mi Calm Calm - -   Smoke
10:00 AM 60.8 °F 41.0 °F 48% 30.21 in 1.6 mi Variable 2.3 mph - N/A   Smoke
11:30 AM 65 °F 41 °F 30% 30.17 in 1 mi SW 4.6 mph - -   Haze
12:00 PM 68.0 °F 37.4 °F 33% 30.18 in 1.9 mi Variable 3.5 mph - N/A   Haze
1:00 PM 68.0 °F 30.2 °F 24% 30.15 in 2.5 mi Variable 8.1 mph - N/A   Haze
2:30 PM 70 °F 33 °F 16% 30.09 in 2 mi NW 5.8 mph - -   Haze
3:00 PM 69.8 °F 33.8 °F 27% 30.12 in 3.7 mi Variable 5.8 mph - N/A   Unknown
4:00 PM 68.0 °F 33.8 °F 28% 30.09 in 3.7 mi Variable 8.1 mph - N/A   Unknown
5:00 PM 68.0 °F 30.2 °F 24% 30.09 in 3.7 mi Variable 5.8 mph - N/A   Unknown
5:30 PM 67 °F 33 °F 17% 30.07 in 2 mi NE 5.8 mph - -  
5:30 PM 68.0 °F 32.0 °F 26% 30.09 in 3.7 mi ENE 5.8 mph - N/A   Unknown
7:00 PM 62.6 °F 33.8 °F 34% 30.12 in 1.6 mi NNE 3.5 mph - N/A   Haze
8:00 PM 60.8 °F 33.8 °F 36% 30.12 in 1.2 mi NE 3.5 mph - N/A   Smoke
8:30 PM 59 °F 35 °F 28% 30.12 in 1 mi NE 4.6 mph - -   Smoke
9:00 PM 57.2 °F 33.8 °F 41% 30.15 in 1.2 mi Variable 3.5 mph - N/A   Smoke
10:00 PM 53.6 °F 35.6 °F 51% 30.15 in 1.2 mi NE 3.5 mph - N/A   Smoke
11:00 PM 53.6 °F 35.6 °F 51% 30.15 in 1.2 mi Calm Calm - N/A   Smoke
11:30 PM 53.6 °F 35.6 °F 51% 30.15 in 1.2 mi Calm Calm - N/A   Smoke